Hillsboro, TX

6:33 PM CDT on April 24, 2017 (GMT -0500)
Hillsboro

Weather History for KINJ - October, 2012

Change the Weather History Date:

Thursday, October 4, 2012

  Actual Average (KACT) Record (KACT)
Temperature  
Mean Temperature 76 °F -  
Max Temperature 87 °F 81 °F 100 °F (1979)
Min Temperature 64 °F 59 °F 41 °F (1987)
Cooling Degree Days 10    
Growing Degree Days 26 (Base 50)    
Moisture  
Dew Point 61 °F    
Average Humidity 62    
Maximum Humidity 78    
Minimum Humidity 46    
Precipitation  
Precipitation 0.00 in - - ()
Sea Level Pressure  
Sea Level Pressure 30.07 in    
Wind  
Wind Speed 10 mph (SE)    
Max Wind Speed 23 mph    
Max Gust Speed 28 mph    
Visibility 10 miles    
Events      
Averages and records for this station are not official NWS values.
T = Trace of Precipitation, MM = Missing Value Source: NWS Daily Summary

Daily Weather History Graph

Daily Weather History Graph

Search for Another Location

Airport or City:

Trip Planner

Search our weather history database for the weather conditions in past years. The results will help you decide how hot, cold, wet, or windy it might be!

Date:

Astronomy

Oct. 04, 2012 Rise Set
Actual Time 7:24 AM CDT 7:08 PM CDT
Civil Twilight 7:00 AM CDT 7:33 PM CDT
Nautical Twilight 6:31 AM CDT 8:01 PM CDT
Astronomical Twilight 6:03 AM CDT 8:29 PM CDT
Moon 10:01 PM CDT (10/4) 11:27 AM CDT (10/4)
Length of Visible Light 12h 32m
Length of Day
11h 44m
Waning Gibbous, 82% of the Moon is Illuminated
Oct 4
Waning Gibbous
Oct 8
Last Quarter
Oct 15
New
Oct 21
First Quarter
Oct 29
Full

Hourly Weather History & Observations

Time (CDT) Temp. Heat Index Dew Point Humidity Pressure Visibility Wind Dir Wind Speed Gust Speed Precip Events Conditions
12:15 AM 69.8 °F - 51.8 °F 53% 30.02 in 10.0 mi Calm Calm - N/A   Clear
12:35 AM 68.0 °F - 51.8 °F 56% 30.02 in 10.0 mi SE 10.4 mph - N/A   Clear
12:55 AM 68.0 °F - 53.6 °F 60% 30.02 in 10.0 mi SE 9.2 mph - N/A   Clear
1:15 AM 68.0 °F - 53.6 °F 60% 30.03 in 10.0 mi Calm Calm - N/A   Clear
1:35 AM 68.0 °F - 53.6 °F 60% 30.03 in 10.0 mi SSE 9.2 mph - N/A   Clear
1:55 AM 68.0 °F - 53.6 °F 60% 30.04 in 10.0 mi SE 10.4 mph - N/A   Clear
2:15 AM 68.0 °F - 53.6 °F 60% 30.04 in 10.0 mi SSE 8.1 mph - N/A   Clear
2:35 AM 66.2 °F - 53.6 °F 64% 30.04 in 10.0 mi SE 8.1 mph - N/A   Clear
2:55 AM 64.4 °F - 53.6 °F 68% 30.05 in 10.0 mi SE 8.1 mph - N/A   Clear
3:15 AM 64.4 °F - 55.4 °F 73% 30.05 in 10.0 mi SE 6.9 mph - N/A   Clear
3:55 AM 64.4 °F - 55.4 °F 73% 30.05 in 10.0 mi SE 6.9 mph - N/A   Clear
4:15 AM 64.4 °F - 55.4 °F 73% 30.05 in 10.0 mi SE 9.2 mph - N/A   Clear
4:35 AM 64.4 °F - 55.4 °F 73% 30.05 in 10.0 mi SE 9.2 mph - N/A   Clear
4:55 AM 64.4 °F - 55.4 °F 73% 30.05 in 10.0 mi SE 10.4 mph - N/A   Clear
5:35 AM 64.4 °F - 55.4 °F 73% 30.07 in 10.0 mi SE 10.4 mph - N/A   Clear
5:55 AM 64.4 °F - 57.2 °F 77% 30.07 in 10.0 mi SE 10.4 mph - N/A   Clear
6:15 AM 64.4 °F - 57.2 °F 77% 30.07 in 10.0 mi SE 12.7 mph - N/A   Clear
6:35 AM 66.2 °F - 57.2 °F 73% 30.07 in 10.0 mi SE 12.7 mph - N/A   Scattered Clouds
6:55 AM 68.0 °F - 59.0 °F 73% 30.08 in 10.0 mi SE 11.5 mph - N/A   Mostly Cloudy
7:15 AM 66.2 °F - 57.2 °F 73% 30.08 in 10.0 mi SE 10.4 mph - N/A   Mostly Cloudy
7:35 AM 64.4 °F - 57.2 °F 77% 30.08 in 10.0 mi SE 10.4 mph - N/A   Scattered Clouds
7:55 AM 66.2 °F - 59.0 °F 78% 30.08 in 10.0 mi SE 10.4 mph - N/A   Clear
8:15 AM 66.2 °F - 59.0 °F 78% 30.08 in 10.0 mi SE 10.4 mph - N/A   Clear
8:35 AM 68.0 °F - 59.0 °F 73% 30.09 in 10.0 mi SE 12.7 mph - N/A   Clear
8:55 AM 69.8 °F - 59.0 °F 68% 30.09 in 10.0 mi SE 11.5 mph - N/A   Clear
9:35 AM 73.4 °F - 60.8 °F 65% 30.10 in 10.0 mi SE 13.8 mph 20.7 mph N/A   Clear
9:55 AM 77.0 °F - 62.6 °F 61% 30.10 in 10.0 mi SE 18.4 mph 24.2 mph N/A   Clear
10:15 AM 77.0 °F - 62.6 °F 61% 30.10 in 10.0 mi SE 23.0 mph 26.5 mph N/A   Scattered Clouds
10:35 AM 77.0 °F - 64.4 °F 65% 30.10 in 10.0 mi SE 17.3 mph 24.2 mph N/A   Scattered Clouds
11:15 AM 78.8 °F - 64.4 °F 61% 30.10 in 10.0 mi SSE 17.3 mph 27.6 mph N/A   Scattered Clouds
11:35 AM 80.6 °F 82.3 °F 64.4 °F 58% 30.11 in 10.0 mi SSE 18.4 mph 26.5 mph N/A   Mostly Cloudy
11:55 AM 80.6 °F 82.7 °F 66.2 °F 61% 30.10 in 10.0 mi SSE 19.6 mph 24.2 mph N/A   Mostly Cloudy
12:15 PM 80.6 °F 82.7 °F 66.2 °F 61% 30.11 in 10.0 mi SSE 18.4 mph 27.6 mph N/A   Mostly Cloudy
12:35 PM 80.6 °F 82.7 °F 66.2 °F 61% 30.11 in 10.0 mi SSE 16.1 mph - N/A   Overcast
12:55 PM 82.4 °F 83.9 °F 64.4 °F 54% 30.11 in 10.0 mi South 18.4 mph 24.2 mph N/A   Overcast
1:15 PM 82.4 °F 83.9 °F 64.4 °F 54% 30.10 in 10.0 mi SSE 16.1 mph 21.9 mph N/A   Mostly Cloudy
1:35 PM 82.4 °F 84.6 °F 66.2 °F 58% 30.10 in 10.0 mi SE 19.6 mph - N/A   Mostly Cloudy
1:55 PM 82.4 °F 83.9 °F 64.4 °F 54% 30.09 in 10.0 mi SSE 18.4 mph - N/A   Mostly Cloudy
2:15 PM 86.0 °F 87.3 °F 64.4 °F 48% 30.08 in 10.0 mi SSE 18.4 mph 24.2 mph N/A   Mostly Cloudy
2:35 PM 86.0 °F 87.3 °F 64.4 °F 48% 30.07 in 10.0 mi SSE 16.1 mph 21.9 mph N/A   Scattered Clouds
2:55 PM 86.0 °F 87.3 °F 64.4 °F 48% 30.07 in 10.0 mi SE 16.1 mph 24.2 mph N/A   Scattered Clouds
3:15 PM 86.0 °F 87.3 °F 64.4 °F 48% 30.07 in 10.0 mi SE 13.8 mph 19.6 mph N/A   Scattered Clouds
3:35 PM 86.0 °F 87.3 °F 64.4 °F 48% 30.06 in 10.0 mi SSE 13.8 mph 21.9 mph N/A   Scattered Clouds
4:15 PM 87.8 °F 89.4 °F 64.4 °F 46% 30.05 in 10.0 mi SE 16.1 mph 21.9 mph N/A   Scattered Clouds
4:35 PM 87.8 °F 89.4 °F 64.4 °F 46% 30.05 in 10.0 mi SSE 15.0 mph - N/A   Scattered Clouds
4:55 PM 86.0 °F 87.3 °F 64.4 °F 48% 30.05 in 10.0 mi SE 17.3 mph - N/A   Scattered Clouds
5:15 PM 86.0 °F 87.3 °F 64.4 °F 48% 30.05 in 10.0 mi SE 13.8 mph 17.3 mph N/A   Scattered Clouds
5:35 PM 86.0 °F 87.3 °F 64.4 °F 48% 30.04 in 10.0 mi SSE 11.5 mph - N/A   Scattered Clouds
5:55 PM 86.0 °F 87.3 °F 64.4 °F 48% 30.04 in 10.0 mi SE 13.8 mph - N/A   Scattered Clouds
6:35 PM 84.2 °F 85.6 °F 64.4 °F 51% 30.05 in 10.0 mi SE 12.7 mph 17.3 mph N/A   Scattered Clouds
6:55 PM 82.4 °F 83.9 °F 64.4 °F 54% 30.05 in 10.0 mi SE 11.5 mph - N/A   Scattered Clouds
7:15 PM 82.4 °F 83.9 °F 64.4 °F 54% 30.06 in 10.0 mi SE 11.5 mph - N/A   Scattered Clouds
7:35 PM 80.6 °F 82.3 °F 64.4 °F 58% 30.05 in 10.0 mi SE 10.4 mph - N/A   Scattered Clouds
8:15 PM 78.8 °F - 64.4 °F 61% 30.06 in 10.0 mi ESE 9.2 mph - N/A   Clear
8:35 PM 78.8 °F - 64.4 °F 61% 30.07 in 10.0 mi ESE 10.4 mph - N/A   Scattered Clouds
9:15 PM 78.8 °F - 64.4 °F 61% 30.07 in 10.0 mi SE 12.7 mph - N/A   Scattered Clouds
9:35 PM 78.8 °F - 64.4 °F 61% 30.07 in 10.0 mi ESE 11.5 mph - N/A   Scattered Clouds
9:55 PM 78.8 °F - 64.4 °F 61% 30.08 in 10.0 mi ESE 10.4 mph - N/A   Mostly Cloudy
10:15 PM 78.8 °F - 64.4 °F 61% 30.08 in 10.0 mi SE 10.4 mph - N/A   Scattered Clouds
10:35 PM 77.0 °F - 64.4 °F 65% 30.08 in 10.0 mi SE 9.2 mph - N/A   Clear
10:55 PM 77.0 °F - 64.4 °F 65% 30.08 in 10.0 mi SE 9.2 mph - N/A   Clear
11:15 PM 77.0 °F - 64.4 °F 65% 30.08 in 10.0 mi SE 11.5 mph - N/A   Clear
11:35 PM 77.0 °F - 66.2 °F 69% 30.08 in 10.0 mi SSE 5.8 mph - N/A   Clear
11:55 PM 75.2 °F - 66.2 °F 73% 30.08 in 10.0 mi Calm Calm - N/A   Clear